Home   Weather   Basse-Terre   Past weeks

Flag for Guadeloupe Past Weather in Basse-Terre, Guadeloupe — Yesterday and Last 2 Weeks

Now
77 °F

Clear.


Feels Like: 78 °F
Forecast: 77 / 84 °F
Wind: 2 mph from Southeast

Location: Le Raizet - Guadeloupe

Current Time: Sep 27, 2016 at 3:02:26 AM

Latest Report: Sep 27, 2016 at 2:30 AM


Visibility: N/A

Pressure: 29.89 "Hg

Humidity: 94%

Dew Point: 75 °F

Location of Basse-TerreLocation

Past Weather in Basse-Terre — Graph

°F

Basse-Terre Temperature Yesterday

Maximum temperature yesterday: 84 °F (at 9:00 AM)
Minimum temperature yesterday: 73 °F (at 4:00 AM)
Average temperature yesterday: 78 °F

High & Low Weather Summary for the Past Weeks

 TemperatureHumidityPressure
High90 °F (Sep 12, 11:00 AM)100% (Sep 12, 6:00 AM)30.04 "Hg (Sep 12, 6:00 AM)
Low73 °F (Sep 14, 6:00 AM)52% (Sep 21, 2:00 PM)29.83 "Hg (Sep 21, 2:00 AM)
Average81 °F81%29.94 "Hg
* Reported Sep 12 2:00 AM — Sep 27 2:00 AM, Basse-Terre, Weather by CustomWeather, © 2016

Note: Actual official high and low records may vary slightly from our data, if they occured in-between our weather recording intervals... More about our weather records

Advertising

Basse-Terre Weather History for the Previous 24 Hours

Scroll right to see more
 ConditionsComfort  
Time TempWeatherWind HumidityBarometerVisibility
2:00 AM
Tue, Sep 27
77 °FPassing clouds.2 mph100%29.89 "HgN/A
1:30 AM77 °FPassing clouds.No wind94%29.89 "HgN/A
1:00 AM77 °FClear.No wind94%29.92 "HgN/A
12:30 AM77 °FPassing clouds.1 mph94%29.92 "HgN/A
12:00 AM77 °FPartly cloudy.No wind100%29.92 "HgN/A
11:30 PM
Mon, Sep 26
77 °FPassing clouds.2 mph100%29.92 "HgN/A
11:00 PM77 °FPassing clouds.No wind94%29.95 "HgN/A
10:30 PM77 °FClear.No wind100%29.95 "HgN/A
10:00 PM77 °FClear.No wind100%29.95 "HgN/A
9:30 PM77 °FClear.No wind100%29.95 "HgN/A
9:00 PM77 °FClear.1 mph100%29.95 "HgN/A
8:30 PM79 °FPassing clouds.No wind94%29.95 "HgN/A
8:00 PM79 °FClear.No wind94%29.95 "HgN/A
7:30 PM79 °FPassing clouds.1 mph94%29.92 "HgN/A
7:00 PM79 °FMostly cloudy.No wind94%29.92 "HgN/A
6:30 PM79 °FLight rain. Mostly cloudy.5 mph94%29.92 "HgN/A
6:00 PM82 °FPassing clouds.5 mph89%29.89 "HgN/A
5:30 PM82 °FLight rain. Mostly cloudy.7 mph89%29.89 "HgN/A
5:00 PM82 °FPartly sunny.5 mph89%29.89 "HgN/A
4:30 PM82 °FBroken clouds.5 mph89%29.89 "HgN/A
4:00 PM82 °FPartly sunny.No wind84%29.89 "HgN/A
3:30 PM82 °FScattered clouds.No wind89%29.89 "HgN/A
3:00 PM81 °FClear.No wind94%29.89 "HgN/A
2:30 PM79 °FBroken clouds.No wind94%29.89 "HgN/A
2:00 PM79 °FFog.5 mph94%29.89 "Hg3 mi
1:30 PM79 °FLight rain. Fog.7 mph89%29.92 "Hg2 mi
1:00 PM81 °FPartly sunny.5 mph89%29.92 "HgN/A
12:30 PM79 °FBroken clouds.No wind89%29.92 "HgN/A
12:00 PM79 °FMore clouds than sun.3 mph94%29.92 "HgN/A
11:30 AM79 °FLight rain. Cloudy.2 mph94%29.95 "HgN/A
11:00 AM79 °FBroken clouds.6 mph89%29.98 "HgN/A
10:30 AM82 °FLight rain. Broken clouds.10 mph84%29.98 "HgN/A
10:00 AM82 °FPartly sunny.5 mph84%29.98 "Hg6 mi
9:30 AM84 °FBroken clouds.3 mph79%29.98 "HgN/A
9:00 AM84 °FScattered clouds.No wind79%29.95 "HgN/A
8:30 AM82 °FClear.No wind84%29.98 "HgN/A
8:00 AM81 °FWarm.3 mph89%29.95 "HgN/A
7:30 AM79 °FWarm.No wind89%29.95 "HgN/A
7:00 AM77 °FPassing clouds.No wind94%29.95 "HgN/A
6:30 AM75 °FMild.No wind94%29.92 "HgN/A
6:00 AM75 °FScattered clouds.No wind94%29.92 "HgN/A
5:30 AM75 °FPassing clouds.3 mph94%29.92 "HgN/A
5:00 AM73 °FPassing clouds.No wind100%29.89 "HgN/A
4:30 AM73 °FPassing clouds.No wind100%29.89 "HgN/A
4:00 AM73 °FClear.No wind100%29.89 "HgN/A
3:30 AM75 °FClear.No wind94%29.89 "HgN/A
3:00 AM75 °FClear.No wind94%29.89 "HgN/A
Weather by CustomWeather, © 2016

See weather overviewHow to use our weather pages